[[{"header":{"parameterUnit":"m.s-1","parameterCategory":1,"la1":30.2991,"la2":30.254,"lo1":-89.0895,"lo2":-89.0444,"dy":0.0017,"dx":0.0017,"nx":28,"ny":28,"refTime":"2025-09-05T03:00:00:Z","depth":0,"parameterNumber":2,"parameterNumberName":"U-component_of_WINDS"},"data":[0,0,0,0,0,0,0,0,0,0,0,0,0,0,0,0,0,0,0,0,0,0,0,0,0,0,0,0,0,0,0,0,0,0,0,0,0,0,0,0,0,0,0,0,0,0,0,0,0,0,0,0,0,0,0,0,0,0,1.6695,1.6695,0,1.6692,1.6692,1.6692,1.666,1.6659,1.6658,1.6658,1.6653,1.6654,1.6654,0,0,0,0,0,0,0,0,0,0,0,0,0,1.6668,1.6669,1.6695,1.6695,1.6695,1.6692,1.6692,1.6692,1.666,1.6659,1.6658,1.6657,1.6653,1.6654,1.6655,0,0,0,0,0,0,0,0,0,0,0,0,0,1.6674,1.6669,1.6695,1.6678,1.6677,1.6692,1.6692,1.6692,1.666,1.6659,1.6658,1.6657,1.6653,1.6654,1.6655,1.6685,0,0,1.6658,1.6658,0,0,0,0,0,0,0,0,1.6674,1.6675,1.6681,1.668,1.6678,1.6675,1.6681,1.669,1.6661,1.6667,1.6657,1.6656,1.6661,1.6662,1.6664,1.6685,1.6685,1.6658,1.6658,1.6659,1.6659,0,0,0,0,0,0,0,1.6673,1.6675,1.6694,1.6681,1.6679,1.667,1.6669,1.6683,1.6671,1.6666,1.6664,1.6664,1.666,1.6663,1.6663,1.6685,1.6658,1.6659,1.6659,1.666,1.6727,1.6728,0,0,0,0,0,0,1.6676,1.6675,1.6694,1.6694,1.6673,1.6671,1.6671,1.6677,1.6671,1.6668,1.6665,1.6662,1.6662,1.6662,1.6663,1.6696,1.6659,1.666,1.666,1.6726,1.6727,1.6728,0,0,0,0,0,0,1.6675,1.6678,1.6694,1.6684,1.6685,1.6673,1.6681,1.6678,1.668,1.667,1.6667,1.667,1.6661,1.6662,1.6679,1.6695,1.666,1.6661,1.6724,1.6726,1.6728,1.6762,0,0,0,0,0,0,1.6674,1.6678,1.669,1.6684,1.6686,1.6711,1.6682,1.6679,1.6682,1.6679,1.6674,1.6672,1.666,1.6678,1.668,1.6696,1.6662,1.6723,1.6725,1.6727,1.676,1.6765,1.677,0,0,0,0,0,1.6674,1.67,1.6691,1.6693,1.6701,1.6712,1.6713,1.67,1.6684,1.6695,1.6688,1.6672,1.6693,1.668,1.6682,1.6698,1.6721,1.6724,1.6727,1.6758,1.6764,1.677,0,0,0,0,0,0,1.6709,1.6699,1.6689,1.6715,1.6715,1.6707,1.6721,1.6708,1.6711,1.6708,1.669,1.669,1.6709,1.6706,1.6691,1.6726,1.6704,1.6708,1.6727,1.6733,1.6738,1.6738,1.6662,0,0,0,0,0,1.672,1.673,1.6721,1.6745,1.6745,1.6733,1.6738,1.6727,1.6726,1.6726,1.672,1.6718,1.6724,1.6729,1.6734,1.676,1.6756,1.6772,1.6777,1.6781,1.6783,1.6793,1.6799,1.6737,1.6737,1.6737,0,0,1.6742,1.6738,1.6746,1.6752,1.675,1.676,1.6733,1.6746,1.6752,1.6727,1.6743,1.6738,1.6735,1.6756,1.6765,1.6754,1.68,1.6784,1.6788,1.6788,1.6796,1.6802,1.6807,1.6739,1.6739,1.6738,0,0,1.6787,1.6786,1.6804,1.6803,1.6801,1.6793,1.6797,1.6791,1.6787,1.6802,1.6782,1.679,1.6801,1.6799,1.68,1.6841,1.6825,1.6844,1.6869,1.6879,1.6884,1.6888,1.69,1.6905,1.6846,1.6847,1.6847,0,1.6815,1.683,1.6815,1.6828,1.683,1.6808,1.6824,1.6824,1.6823,1.6824,1.6813,1.6825,1.6822,1.684,1.685,1.6852,1.6854,1.6843,1.6885,1.6889,1.6892,1.6903,1.6908,1.6849,1.6848,1.6848,1.6848,0,1.6862,1.6873,1.6887,1.6887,1.689,1.6905,1.6892,1.6897,1.6886,1.6878,1.6892,1.6887,1.689,1.6893,1.6883,1.6909,1.6902,1.6888,1.6866,1.69,1.691,1.6915,1.6851,1.6851,1.685,1.685,0,0,1.693,1.692,1.6925,1.6923,1.6918,1.6925,1.6938,1.694,1.6944,1.6944,1.6953,1.6962,1.6948,1.6948,1.6937,1.6946,1.6976,1.693,1.693,1.6936,1.7001,1.701,1.7016,1.6966,1.6967,1.6967,1.7,0,1.6971,1.6992,1.6979,1.7001,1.7009,1.6987,1.6998,1.6995,1.6988,1.6992,1.6984,1.6989,1.6972,1.6971,1.6979,1.697,1.6988,1.6968,1.6971,1.6972,1.6971,1.7021,1.7032,1.7063,1.7004,1.7005,1.7006,0,1.7022,1.7023,1.7047,1.7037,1.704,1.705,1.7049,1.7055,1.705,1.7044,1.7044,1.7029,1.7039,1.7019,1.7031,1.7017,1.7018,1.7013,1.7014,1.7012,1.6989,1.7019,1.7073,1.7077,1.7012,1.7012,1.7011,0,1.7065,1.7073,1.7087,1.7087,1.7077,1.7084,1.708,1.7075,1.7076,1.7075,1.7075,1.7076,1.7076,1.7076,1.7062,1.7049,1.7074,1.7054,1.7068,1.7068,1.7073,1.7072,1.7126,1.7077,1.7077,1.7077,1.7077,0,1.7111,1.7126,1.7106,1.7115,1.7129,1.7113,1.7128,1.7121,1.7116,1.7122,1.7103,1.7109,1.709,1.7093,1.7082,1.7092,1.7093,1.7086,1.7083,1.7087,1.7087,1.7086,1.7082,1.7078,1.7078,1.7077,1.7077,0,1.7161,1.7149,1.7163,1.7152,1.7149,1.7161,1.7151,1.7157,1.7148,1.7155,1.7156,1.7142,1.7144,1.713,1.713,1.7122,1.7136,1.713,1.7138,1.7135,1.7149,1.7147,1.7202,1.7207,1.7157,1.7157,1.7158,0,1.7191,1.7201,1.7191,1.7193,1.719,1.7195,1.7196,1.7179,1.7181,1.7175,1.7181,1.7182,1.7182,1.7186,1.7175,1.7174,1.7167,1.7186,1.7166,1.7169,1.7164,1.7162,1.7162,1.7189,1.719,1.719,1.7191,0,1.7243,1.7235,1.7238,1.7237,1.7238,1.7237,1.7235,1.7238,1.722,1.7222,1.7224,1.7223,1.7223,1.7223,1.7219,1.7214,1.7199,1.7197,1.72,1.7203,1.7206,1.7202,1.7146,1.7196,1.7195,1.7195,1.7195,1.7194,1.7281,1.7288,1.7282,1.7284,1.728,1.7277,1.7282,1.7273,1.7275,1.7273,1.7263,1.7266,1.7259,1.7252,1.7248,1.7249,1.724,1.7245,1.7245,1.7246,1.7248,1.7207,1.7249,1.7249,1.7249,1.7249,1.7249,0,1.733,1.7324,1.7327,1.7323,1.7324,1.731,1.7306,1.7307,1.731,1.7305,1.7305,1.7305,1.7305,1.7293,1.7291,1.7294,1.7287,1.7294,1.7292,1.729,1.7258,1.7254,1.7299,1.7299,1.7299,1.7299,1.7299,1.7299,1.7355,1.7366,1.7357,1.7364,1.7358,1.7361,1.736,1.7356,1.7352,1.7353,1.7353,1.7345,1.7336,1.7333,1.7331,1.7327,1.7326,1.7335,1.7329,1.7298,1.7293,1.7288,1.7285,1.7336,1.7336,1.7361,1.7362,1.7362]},{"header":{"parameterUnit":"m.s-1","parameterCategory":1,"la1":30.2991,"la2":30.254,"lo1":-89.0895,"lo2":-89.0444,"dy":0.0017,"dx":0.0017,"nx":28,"ny":28,"refTime":"2025-09-05T03:00:00:Z","depth":0,"parameterNumber":3,"parameterNumberName":"V-component_of_WINDS"},"data":[0,0,0,0,0,0,0,0,0,0,0,0,0,0,0,0,0,0,0,0,0,0,0,0,0,0,0,0,0,0,0,0,0,0,0,0,0,0,0,0,0,0,0,0,0,0,0,0,0,0,0,0,0,0,0,0,0,0,2.9366,2.9366,0,2.9352,2.9352,2.9352,2.9307,2.9306,2.9305,2.9305,2.9289,2.9289,2.929,0,0,0,0,0,0,0,0,0,0,0,0,0,2.9352,2.9352,2.9366,2.9366,2.9366,2.9352,2.9352,2.9352,2.9308,2.9306,2.9305,2.9304,2.9289,2.9289,2.929,0,0,0,0,0,0,0,0,0,0,0,0,0,2.935,2.9353,2.9366,2.9342,2.934,2.9352,2.9352,2.9352,2.9308,2.9306,2.9305,2.9304,2.9289,2.9289,2.929,2.9324,0,0,2.9292,2.9293,0,0,0,0,0,0,0,0,2.935,2.9351,2.9346,2.9344,2.9341,2.933,2.9341,2.9343,2.9308,2.932,2.9304,2.9303,2.9304,2.9303,2.9304,2.9324,2.9323,2.9292,2.9293,2.9293,2.9293,0,0,0,0,0,0,0,2.935,2.9351,2.9361,2.9346,2.9343,2.9331,2.9329,2.9341,2.932,2.9319,2.9316,2.9315,2.9302,2.9303,2.9303,2.9323,2.9292,2.9293,2.9294,2.9294,2.9367,2.9368,0,0,0,0,0,0,2.9354,2.9351,2.9361,2.936,2.9342,2.9333,2.9331,2.9335,2.932,2.9316,2.9316,2.9313,2.9303,2.9302,2.9302,2.9339,2.9293,2.9294,2.9294,2.9365,2.9367,2.9369,0,0,0,0,0,0,2.9354,2.9356,2.9362,2.9355,2.9355,2.9334,2.934,2.9336,2.9336,2.9318,2.9314,2.9321,2.9301,2.9301,2.9319,2.9338,2.9294,2.9295,2.9363,2.9366,2.9368,2.9414,0,0,0,0,0,0,2.9354,2.9356,2.9369,2.9356,2.9355,2.9379,2.9341,2.9336,2.9338,2.9334,2.9321,2.9318,2.93,2.9318,2.9319,2.9338,2.9296,2.9362,2.9364,2.9367,2.9411,2.9418,2.9424,0,0,0,0,0,2.9354,2.9383,2.937,2.9372,2.9372,2.938,2.938,2.9359,2.934,2.9352,2.934,2.9318,2.9336,2.932,2.9321,2.9341,2.936,2.9364,2.9367,2.9408,2.9416,2.9423,0,0,0,0,0,0,2.94,2.9381,2.9366,2.9393,2.9388,2.9373,2.9388,2.9369,2.937,2.9366,2.934,2.9338,2.9358,2.9351,2.9334,2.9371,2.9344,2.9348,2.9375,2.9383,2.9389,2.9389,2.9296,0,0,0,0,0,2.9413,2.9422,2.9405,2.943,2.9428,2.9409,2.9412,2.9396,2.9391,2.9388,2.9377,2.9372,2.9376,2.9379,2.9382,2.941,2.9405,2.9424,2.943,2.9436,2.9439,2.945,2.9457,2.938,2.938,2.9379,0,0,2.9441,2.9431,2.9439,2.9439,2.9434,2.9442,2.9408,2.9419,2.9424,2.939,2.9405,2.9397,2.9389,2.9411,2.942,2.9406,2.9459,2.944,2.9444,2.9444,2.9454,2.9462,2.9468,2.9382,2.9381,2.9381,0,0,2.9494,2.949,2.9508,2.9504,2.9496,2.9483,2.9487,2.9474,2.9467,2.9482,2.9455,2.9462,2.947,2.9465,2.9463,2.9514,2.9492,2.9515,2.9548,2.956,2.9566,2.9571,2.9586,2.9593,2.9519,2.9519,2.9519,0,2.9529,2.9542,2.952,2.9533,2.9532,2.9502,2.9519,2.9516,2.951,2.951,2.9494,2.9502,2.9495,2.9514,2.9526,2.9527,2.953,2.9516,2.9567,2.9572,2.9576,2.9591,2.9597,2.9522,2.9521,2.9521,2.9521,0,2.9584,2.9593,2.9609,2.9603,2.9605,2.962,2.9599,2.9604,2.9588,2.9576,2.959,2.958,2.9579,2.9583,2.9568,2.9599,2.9591,2.9572,2.9543,2.9587,2.96,2.9605,2.9525,2.9524,2.9524,2.9523,0,0,2.9666,2.9647,2.9653,2.9649,2.9638,2.9644,2.9657,2.9656,2.9659,2.9656,2.9665,2.9672,2.9654,2.9652,2.9636,2.9646,2.9684,2.9625,2.9625,2.9634,2.9714,2.9727,2.9734,2.967,2.9671,2.9672,2.9714,0,2.9715,2.9736,2.9716,2.9741,2.9748,2.9718,2.9729,2.9723,2.9711,2.9715,2.9702,2.9706,2.9683,2.9682,2.9691,2.9677,2.9699,2.9674,2.9676,2.9677,2.9677,2.9741,2.9755,2.9796,2.9719,2.972,2.9721,0,2.9775,2.9774,2.9799,2.9784,2.9786,2.9796,2.9793,2.9797,2.9789,2.978,2.9777,2.9757,2.9767,2.9741,2.9754,2.9737,2.9737,2.973,2.9731,2.9729,2.97,2.9739,2.9808,2.9813,2.9729,2.9729,2.9728,0,2.9829,2.9834,2.9849,2.9847,2.9831,2.9838,2.9832,2.9822,2.9822,2.9819,2.9818,2.9817,2.9815,2.9814,2.9794,2.9777,2.9808,2.978,2.9799,2.9799,2.9805,2.9804,2.9873,2.9809,2.9809,2.9809,2.9808,0,2.9885,2.9901,2.9873,2.9882,2.9898,2.9875,2.9891,2.9882,2.9873,2.9879,2.9854,2.9859,2.9833,2.9836,2.982,2.9831,2.9831,2.9823,2.9818,2.9824,2.9825,2.9822,2.9818,2.981,2.981,2.9809,2.9809,0,2.9948,2.993,2.9944,2.9927,2.9923,2.9936,2.9921,2.9927,2.9914,2.9922,2.9922,2.9901,2.9903,2.9883,2.9881,2.987,2.9887,2.9879,2.989,2.9886,2.9905,2.9902,2.9972,2.9979,2.9913,2.9913,2.9914,0,2.9983,2.9994,2.9979,2.998,2.9975,2.9979,2.9979,2.9956,2.9957,2.9947,2.9954,2.9954,2.9952,2.9955,2.9939,2.9937,2.9926,2.9951,2.9926,2.993,2.9924,2.9922,2.9922,2.9956,2.9957,2.9957,2.9958,0,3.0047,3.0037,3.0038,3.0035,3.0036,3.0032,3.0028,3.003,3.0005,3.0007,3.0008,3.0007,3.0004,3.0003,2.9997,2.9989,2.9968,2.9966,2.997,2.9975,2.998,2.9975,2.9902,2.9964,2.9964,2.9963,2.9963,2.9963,3.0095,3.0103,3.0093,3.0094,3.0088,3.0083,3.0088,3.0075,3.0076,3.0072,3.0058,3.0061,3.0051,3.0041,3.0035,3.0035,3.0023,3.0029,3.003,3.0031,3.0034,2.9982,3.0035,3.0034,3.0034,3.0034,3.0034,0,3.0156,3.0147,3.0149,3.0142,3.0143,3.0125,3.0118,3.0119,3.0122,3.0114,3.0112,3.0112,3.0111,3.0094,3.009,3.0094,3.0085,3.0094,3.0092,3.009,3.0046,3.0042,3.0101,3.0101,3.0101,3.0101,3.0101,3.0101,3.0187,3.0198,3.0187,3.0195,3.0186,3.0189,3.0186,3.0181,3.0174,3.0176,3.0174,3.0164,3.0152,3.0147,3.0144,3.0139,3.0137,3.0149,3.0141,3.01,3.0093,3.0087,3.0083,3.015,3.015,3.0184,3.0185,3.0185]}]]